Location: Gisborne
(38.6530°S, 178.0040°E)
Time: 02:50:54
(UTC+13:00)

Cosmos 1515 Rocket - Pass Details

Date: 24 January 2019
Orbit: 607 x 630 km, 82.5° (Epoch: 15 February)

Event Time Altitude Azimuth Distance (km) Brightness Sun altitude
Exits shadow 21:23:48 - 6° (N) 2,765 6.5 -10.0°
Reaches altitude 10° 21:25:41 10° 10° (N) 2,013 5.8 -10.3°
Maximum altitude 21:30:03 53° 87° (E) 784 3.8 -11.0°
Drops below altitude 10° 21:34:27 10° 163° (SSE) 2,040 6.5 -11.7°
Sets 21:36:45 0° 167° (SSE) 2,955 7.4 -12.0°
